EW6553 Weather Reports


Display with metric or nautical units.
time (UTC)temp
F
wind
direction
speed
MPH
gust
MPH
rain 1hr
in
rain 24hr
in
rain mn
in
humidity
%
barometer
mb
20190120235716 45 158 0.0 3.0 0.00 0.00 0.00 46 1024.3
20190120235215 45 96 0.0 3.0 0.00 0.00 0.00 45 1024.4
20190120234715 46 85 0.0 3.0 0.00 0.00 0.00 45 1024.4
20190120234216 46 157 0.0 5.0 0.00 0.00 0.00 45 1024.3
20190120233714 46 76 0.0 5.0 0.00 0.00 0.00 45 1024.3
20190120233215 46 65 0.0 5.0 0.00 0.00 0.00 45 1024.1
20190120232715 47 125 0.0 5.0 0.00 0.00 0.00 45 1024.1
20190120232215 47 99 1.0 5.0 0.00 0.00 0.00 44 1024.2
20190120231715 47 220 0.0 3.0 0.00 0.00 0.00 44 1024.2
20190120231214 48 114 1.0 5.0 0.00 0.00 0.00 43 1024.4
20190120230715 48 264 2.0 6.0 0.00 0.00 0.00 42 1024.6
20190120230213 49 151 2.0 6.0 0.00 0.00 0.00 41 1024.5
20190120225715 49 118 2.0 7.0 0.00 0.00 0.00 41 1024.5
20190120225213 49 118 1.0 7.0 0.00 0.00 0.00 42 1024.4
20190120224715 49 102 1.0 5.0 0.00 0.00 0.00 41 1024.5
20190120224213 49 116 0.0 6.0 0.00 0.00 0.00 41 1024.5
20190120223714 49 97 1.0 6.0 0.00 0.00 0.00 41 1024.5
20190120223213 49 106 3.0 5.0 0.00 0.00 0.00 41 1024.8
20190120222713 50 237 2.0 5.0 0.00 0.00 0.00 40 1024.8
20190120222215 50 79 1.0 5.0 0.00 0.00 0.00 40 1024.9
20190120221713 50 178 0.0 5.0 0.00 0.00 0.00 41 1025.0
20190120221214 49 107 2.0 5.0 0.00 0.00 0.00 40 1024.9
20190120220712 49 199 1.0 4.0 0.00 0.00 0.00 40 1024.9
20190120220213 49 144 1.0 5.0 0.00 0.00 0.00 42 1025.0
20190120215713 49 161 0.0 5.0 0.00 0.00 0.00 41 1025.1
20190120215213 48 42 1.0 4.0 0.00 0.00 0.00 41 1025.1
20190120214714 48 219 1.0 4.0 0.00 0.00 0.00 41 1025.1
20190120214213 47 173 0.0 7.0 0.00 0.00 0.00 40 1025.1
20190120213714 48 86 3.0 7.0 0.00 0.00 0.00 38 1025.2
20190120213214 48 216 2.0 6.0 0.00 0.00 0.00 40 1025.1
20190120212714 48 104 0.0 6.0 0.00 0.00 0.00 39 1025.3
20190120212212 47 111 2.0 5.0 0.00 0.00 0.00 40 1025.4
20190120211711 47 135 2.0 5.0 0.00 0.00 0.00 40 1025.7
20190120211212 47 223 1.0 4.0 0.00 0.00 0.00 42 1025.7
20190120210711 47 113 1.0 4.0 0.00 0.00 0.00 41 1025.7
20190120210212 47 166 0.0 3.0 0.00 0.00 0.00 41 1025.6
20190120205711 47 102 0.0 3.0 0.00 0.00 0.00 41 1025.7
20190120205213 47 90 0.0 3.0 0.00 0.00 0.00 42 1025.8
20190120204710 47 116 0.0 3.0 0.00 0.00 0.00 42 1025.9
20190120204212 47 118 1.0 4.0 0.00 0.00 0.00 42 1025.9
20190120203712 47 140 1.0 4.0 0.00 0.00 0.00 41 1025.8
20190120203210 47 149 0.0 4.0 0.00 0.00 0.00 41 1025.8
20190120202710 47 89 1.0 4.0 0.00 0.00 0.00 42 1025.9
20190120202211 47 219 1.0 4.0 0.00 0.00 0.00 42 1026.0
20190120201712 47 134 0.0 4.0 0.00 0.00 0.00 41 1026.0
20190120201210 47 83 1.0 5.0 0.00 0.00 0.00 42 1026.1
20190120200711 47 118 1.0 6.0 0.00 0.00 0.00 41 1026.2
20190120200211 47 97 2.0 6.0 0.00 0.00 0.00 41 1026.4
20190120195710 47 23 0.0 5.0 0.00 0.00 0.00 42 1026.5
20190120195210 47 226 1.0 5.0 0.00 0.00 0.00 41 1026.7
20190120194710 47 237 0.0 4.0 0.00 0.00 0.00 41 1026.6
20190120194210 46 238 0.0 4.0 0.00 0.00 0.00 42 1026.8
20190120193708 46 196 0.0 5.0 0.00 0.00 0.00 43 1026.8
20190120193210 46 237 2.0 5.0 0.00 0.00 0.00 39 1026.9
20190120192709 46 220 0.0 5.0 0.00 0.00 0.00 43 1027.1
20190120192210 46 176 1.0 3.0 0.00 0.00 0.00 42 1027.3
20190120191709 45 237 1.0 5.0 0.00 0.00 0.00 43 1027.5
20190120191208 45 212 2.0 5.0 0.00 0.00 0.00 44 1027.8
20190120190710 45 220 1.0 3.0 0.00 0.00 0.00 44 1028.0
20190120190208 45 261 0.0 3.0 0.00 0.00 0.00 43 1028.1
20190120185709 45 234 0.0 4.0 0.00 0.00 0.00 42 1028.2
20190120185208 45 92 1.0 4.0 0.00 0.00 0.00 43 1028.4
20190120184709 44 75 0.0 3.0 0.00 0.00 0.00 43 1028.7
20190120184209 44 240 0.0 3.0 0.00 0.00 0.00 46 1028.8
20190120183709 44 111 0.0 2.0 0.00 0.00 0.00 46 1029.0
20190120183208 43 89 1.0 3.0 0.00 0.00 0.00 47 1029.3
20190120182708 43 245 2.0 3.0 0.00 0.00 0.00 48 1029.4
20190120182208 43 235 0.0 3.0 0.00 0.00 0.00 49 1029.4
20190120181706 42 149 0.0 3.0 0.00 0.00 0.00 50 1029.5
20190120181209 42 226 0.0 4.0 0.00 0.00 0.00 50 1029.6
20190120180708 42 257 3.0 5.0 0.00 0.00 0.00 50 1029.7
20190120180209 42 240 2.0 5.0 0.00 0.00 0.00 49 1029.7
20190120175707 41 197 0.0 2.0 0.00 0.00 0.00 52 1029.9
20190120175208 41 47 0.0 2.0 0.00 0.00 0.00 51 1030.1
20190120174707 40 231 0.0 4.0 0.00 0.00 0.00 52 1030.2
20190120174207 40 231 1.0 4.0 0.00 0.00 0.00 53 1030.3
20190120173707 40 223 1.0 4.0 0.00 0.00 0.00 54 1030.4
20190120173206 40 238 0.0 3.0 0.00 0.00 0.00 53 1030.5
20190120172707 39 137 1.0 5.0 0.00 0.00 0.00 56 1030.6
20190120172206 38 278 0.0 5.0 0.00 0.00 0.00 55 1030.6
20190120171708 38 258 2.0 5.0 0.00 0.00 0.00 55 1030.6
20190120171206 38 25 1.0 4.0 0.00 0.00 0.00 55 1030.7
20190120170705 38 345 0.0 2.0 0.00 0.00 0.00 55 1030.9
20190120170207 38 216 0.0 2.0 0.00 0.00 0.00 55 1031.0
20190120165706 38 288 0.0 2.0 0.00 0.00 0.00 56 1030.9
20190120165206 38 137 0.0 2.0 0.00 0.00 0.00 59 1030.8
20190120164707 37 47 0.0 0.0 0.00 0.00 0.00 59 1030.8
20190120164207 36 282 0.0 2.0 0.00 0.00 0.00 62 1030.6
20190120163706 35 13 0.0 2.0 0.00 0.00 0.00 63 1030.7
20190120163207 35 334 1.0 3.0 0.00 0.00 0.00 62 1030.6
20190120162705 34 350 2.0 3.0 0.00 0.00 0.00 63 1030.7
20190120162205 34 212 1.0 3.0 0.00 0.00 0.00 65 1030.6
20190120161706 34 327 0.0 3.0 0.00 0.00 0.00 65 1030.6
20190120161207 33 7 0.0 4.0 0.00 0.00 0.00 66 1030.6
20190120160706 33 281 0.0 4.0 0.00 0.00 0.00 64 1030.6
20190120160204 33 47 0.0 2.0 0.00 0.00 0.00 66 1030.6
20190120155705 32 13 0.0 3.0 0.00 0.00 0.00 71 1030.6
20190120155204 32 300 0.0 3.0 0.00 0.00 0.00 68 1030.6
20190120154706 32 49 0.0 4.0 0.00 0.00 0.00 70 1030.6
20190120154205 31 312 0.0 5.0 0.00 0.00 0.00 71 1030.5
20190120153706 31 298 1.0 5.0 0.00 0.00 0.00 72 1030.7
20190120153204 31 347 1.0 5.0 0.00 0.00 0.00 73 1030.8
20190120152703 30 234 1.0 5.0 0.00 0.00 0.00 72 1030.8
20190120152204 30 24 1.0 5.0 0.00 0.00 0.00 75 1030.8
20190120151705 29 331 2.0 5.0 0.00 0.00 0.00 75 1030.7
20190120151204 29 285 1.0 4.0 0.00 0.00 0.00 75 1030.6
20190120150704 29 327 1.0 4.0 0.00 0.00 0.00 76 1030.5
20190120150205 29 14 0.0 4.0 0.00 0.00 0.00 76 1030.4
20190120145704 28 292 2.0 5.0 0.00 0.00 0.00 77 1030.4
20190120145203 28 319 0.0 5.0 0.00 0.00 0.00 78 1030.2
20190120144704 28 351 0.0 4.0 0.00 0.00 0.00 78 1030.2
20190120144204 27 334 1.0 4.0 0.00 0.00 0.00 79 1030.2
20190120143703 27 350 0.0 3.0 0.00 0.00 0.00 80 1030.3
20190120143202 27 314 0.0 3.0 0.00 0.00 0.00 81 1030.2
20190120142704 26 337 0.0 5.0 0.00 0.00 0.00 81 1030.4
20190120142203 26 357 2.0 5.0 0.00 0.00 0.00 82 1030.6
20190120141704 26 289 1.0 3.0 0.00 0.00 0.00 83 1030.3
20190120141202 26 351 0.0 1.0 0.00 0.00 0.00 83 1030.1
20190120140703 26 4 0.0 2.0 0.00 0.00 0.00 83 1030.1
20190120140201 26 343 0.0 2.0 0.00 0.00 0.00 84 1030.1
20190120135702 25 20 0.0 3.0 0.00 0.00 0.00 84 1029.9
20190120135203 25 321 0.0 3.0 0.00 0.00 0.00 85 1030.1
20190120134703 25 345 1.0 2.0 0.00 0.00 0.00 85 1030.0
20190120134202 25 329 0.0 1.0 0.00 0.00 0.00 85 1029.7
20190120133701 25 47 0.0 1.0 0.00 0.00 0.00 85 1029.7
20190120133203 25 327 0.0 0.0 0.00 0.00 0.00 85 1029.6
20190120132702 25 333 0.0 2.0 0.00 0.00 0.00 84 1029.6
20190120132201 25 357 0.0 3.0 0.00 0.00 0.00 84 1029.5
20190120131701 25 31 0.0 3.0 0.00 0.00 0.00 84 1029.6
20190120131200 25 44 0.0 2.0 0.00 0.00 0.00 85 1029.6
20190120130701 25 341 0.0 2.0 0.00 0.00 0.00 85 1029.8
20190120130202 25 334 0.0 2.0 0.00 0.00 0.00 85 1029.5
20190120125701 25 353 0.0 2.0 0.00 0.00 0.00 85 1029.5
20190120125201 25 313 0.0 2.0 0.00 0.00 0.00 85 1029.6
20190120124702 25 320 0.0 1.0 0.00 0.00 0.00 85 1029.3
20190120124202 25 331 0.0 1.0 0.00 0.00 0.00 84 1029.1
20190120123700 25 331 0.0 1.0 0.00 0.00 0.00 85 1029.0
20190120123200 25 326 0.0 1.0 0.00 0.00 0.00 85 1029.1
20190120122700 25 8 0.0 1.0 0.00 0.00 0.00 84 1029.1
20190120122200 25 348 0.0 1.0 0.00 0.00 0.00 85 1028.8
20190120121700 25 333 0.0 1.0 0.00 0.00 0.00 85 1029.0
20190120121201 25 340 0.0 1.0 0.00 0.00 0.00 85 1029.2
20190120120659 25 336 0.0 1.0 0.00 0.00 0.00 85 1029.2
20190120120201 25 333 0.0 1.0 0.00 0.00 0.00 85 1029.1
20190120115659 25 285 0.0 1.0 0.00 0.00 0.00 85 1029.2
20190120115159 25 329 0.0 0.0 0.00 0.00 0.00 84 1029.0
20190120114700 25 329 0.0 0.0 0.00 0.00 0.00 84 1028.8
20190120114200 25 329 0.0 1.0 0.00 0.00 0.00 84 1028.6
20190120113658 25 329 0.0 1.0 0.00 0.00 0.00 84 1028.7
20190120113158 25 303 0.0 0.0 0.00 0.00 0.00 84 1028.6
20190120112700 25 324 0.0 1.0 0.00 0.00 0.00 83 1029.0
20190120112159 25 305 0.0 1.0 0.00 0.00 0.00 83 1029.3
20190120111658 25 319 0.0 1.0 0.00 0.00 0.00 83 1029.3
20190120111159 25 288 0.0 1.0 0.00 0.00 0.00 83 1029.3
20190120110657 25 279 0.0 0.0 0.00 0.00 0.00 83 1029.4
20190120110158 25 268 0.0 0.0 0.00 0.00 0.00 83 1029.4
20190120105657 25 319 0.0 1.0 0.00 0.00 0.00 83 1029.7
20190120105159 25 333 0.0 1.0 0.00 0.00 0.00 82 1029.4
20190120104658 26 233 0.0 0.0 0.00 0.00 0.00 81 1029.1
20190120104159 26 233 0.0 1.0 0.00 0.00 0.00 81 1029.3
20190120103658 26 329 0.0 1.0 0.00 0.00 0.00 81 1029.5
20190120103158 26 300 0.0 1.0 0.00 0.00 0.00 81 1029.4
20190120102658 26 32 0.0 0.0 0.00 0.00 0.00 81 1029.3
20190120102157 26 0 0.0 2.0 0.00 0.00 0.00 80 1029.2
20190120101657 26 348 0.0 2.0 0.00 0.00 0.00 81 1029.2
20190120101157 26 343 0.0 5.0 0.00 0.00 0.00 80 1029.3
20190120100657 26 51 0.0 5.0 0.00 0.00 0.00 80 1029.3
20190120100156 26 341 0.0 2.0 0.00 0.00 0.00 80 1029.5
20190120095657 27 324 0.0 5.0 0.00 0.00 0.00 80 1029.4
20190120095156 27 341 0.0 5.0 0.00 0.00 0.00 80 1029.5
20190120094701 27 344 2.0 4.0 0.00 0.00 0.00 80 1029.5
20190120094155 27 56 0.0 4.0 0.00 0.00 0.00 80 1029.3
20190120093656 27 337 1.0 4.0 0.00 0.00 0.00 80 1029.5
20190120093155 27 21 1.0 5.0 0.00 0.00 0.00 80 1029.7
20190120092654 27 345 2.0 5.0 0.00 0.00 0.00 79 1029.5
20190120092157 27 350 1.0 4.0 0.00 0.00 0.00 79 1029.5
20190120091656 27 324 0.0 5.0 0.00 0.00 0.00 79 1029.3
20190120091157 27 347 1.0 5.0 0.00 0.00 0.00 79 1028.7
20190120090655 27 18 0.0 4.0 0.00 0.00 0.00 79 1029.0
20190120090155 27 358 1.0 5.0 0.00 0.00 0.00 78 1029.6
20190120085656 28 337 0.0 6.0 0.00 0.00 0.00 78 1029.5
20190120085155 28 4 1.0 6.0 0.00 0.00 0.00 78 1029.4
20190120084655 28 11 1.0 5.0 0.00 0.00 0.00 78 1029.6
20190120084155 28 354 3.0 7.0 0.00 0.00 0.00 78 1029.7
20190120083656 28 357 2.0 7.0 0.00 0.00 0.00 78 1029.6
20190120083155 28 354 2.0 7.0 0.00 0.00 0.00 77 1029.5
20190120082655 28 42 3.0 10.0 0.00 0.00 0.00 77 1029.4
20190120082154 28 11 3.0 10.0 0.00 0.00 0.00 77 1029.5
20190120081654 28 351 2.0 7.0 0.00 0.00 0.00 77 1029.5
20190120081154 28 21 1.0 7.0 0.00 0.00 0.00 77 1029.5
20190120080653 28 13 3.0 7.0 0.00 0.00 0.00 76 1029.4
20190120080153 28 357 2.0 6.0 0.00 0.00 0.00 76 1029.4
20190120075653 28 96 1.0 9.0 0.00 0.00 0.00 76 1029.4
20190120075155 28 355 4.0 9.0 0.00 0.00 0.00 76 1029.6
20190120074654 28 3 2.0 6.0 0.00 0.00 0.00 76 1029.7
20190120074156 28 4 2.0 7.0 0.00 0.00 0.00 76 1029.7
20190120073654 28 341 2.0 7.0 0.00 0.00 0.00 76 1029.5
20190120073153 29 351 1.0 7.0 0.00 0.00 0.00 76 1029.6
20190120072654 29 355 3.0 7.0 0.00 0.00 0.00 75 1029.7
20190120072153 29 55 1.0 7.0 0.00 0.00 0.00 75 1029.6
20190120071654 29 348 3.0 7.0 0.00 0.00 0.00 75 1029.7
20190120071153 29 341 2.0 13.0 0.00 0.00 0.00 75 1029.6
20190120070653 29 37 3.0 13.0 0.00 0.00 0.00 75 1029.5
20190120070153 29 353 2.0 12.0 0.00 0.00 0.00 75 1029.7
20190120065654 29 355 4.0 12.0 0.00 0.00 0.00 75 1029.9
20190120065153 29 14 4.0 10.0 0.00 0.00 0.00 74 1030.0
20190120064652 29 18 2.0 10.0 0.00 0.00 0.00 74 1029.9
20190120064153 29 357 5.0 10.0 0.00 0.00 0.00 74 1029.7
20190120063652 29 336 4.0 10.0 0.00 0.00 0.00 74 1029.7
20190120063153 29 331 4.0 9.0 0.00 0.00 0.00 74 1029.5
20190120062651 29 0 3.0 10.0 0.00 0.00 0.00 74 1029.6
20190120062152 29 312 2.0 11.0 0.00 0.00 0.00 73 1029.6
20190120061652 29 350 4.0 11.0 0.00 0.00 0.00 73 1029.6
20190120061153 30 345 3.0 10.0 0.00 0.00 0.00 73 1029.8
20190120060651 30 350 3.0 11.0 0.00 0.00 0.00 73 1029.7
20190120060152 30 351 4.0 14.0 0.00 0.00 0.00 73 1029.6
20190120055651 30 1 5.0 14.0 0.00 0.00 0.00 72 1029.8
20190120055151 30 334 5.0 11.0 0.00 0.00 0.00 72 1029.9
20190120054652 30 62 4.0 10.0 0.00 0.00 0.00 72 1029.8
20190120054151 30 35 4.0 11.0 0.00 0.00 0.00 72 1029.8
20190120053651 30 7 4.0 13.0 0.00 0.00 0.00 72 1029.7
20190120053152 30 343 6.0 13.0 0.00 0.00 0.00 72 1029.7
20190120052652 30 56 5.0 11.0 0.00 0.00 0.00 73 1029.7
20190120052150 30 54 6.0 12.0 0.00 0.00 0.00 72 1029.5
20190120051651 30 41 3.0 12.0 0.00 0.00 0.00 72 1029.4
20190120051151 30 51 5.0 13.0 0.00 0.00 0.00 73 1029.4
20190120050650 31 358 6.0 14.0 0.00 0.00 0.00 72 1029.4
20190120050150 31 357 4.0 14.0 0.00 0.00 0.00 73 1029.1
20190120045650 31 343 7.0 15.0 0.00 0.00 0.00 73 1028.8
20190120045150 31 334 7.0 15.0 0.00 0.00 0.00 73 1028.8
20190120044650 31 344 4.0 9.0 0.00 0.00 0.00 73 1028.8
20190120044151 31 48 5.0 11.0 0.00 0.00 0.00 73 1028.6
20190120043650 31 357 5.0 11.0 0.00 0.00 0.00 73 1028.4
20190120043149 31 11 3.0 9.0 0.00 0.00 0.00 73 1028.3
20190120042649 31 353 3.0 11.0 0.00 0.00 0.00 73 1028.2
20190120042149 31 345 4.0 11.0 0.00 0.00 0.00 73 1028.1
20190120041650 31 343 6.0 11.0 0.00 0.00 0.00 73 1027.9
20190120041149 31 55 3.0 6.0 0.00 0.00 0.00 73 1027.7
20190120040650 31 337 1.0 9.0 0.00 0.00 0.00 73 1027.7
20190120040149 31 345 3.0 9.0 0.00 0.00 0.00 73 1027.9
20190120035650 31 35 1.0 9.0 0.00 0.00 0.00 72 1027.9
20190120035148 32 329 3.0 9.0 0.00 0.00 0.00 73 1028.0
20190120034648 32 355 2.0 7.0 0.00 0.00 0.00 72 1028.0
20190120034148 32 343 2.0 7.0 0.00 0.00 0.00 72 1027.8
20190120033648 32 3 2.0 6.0 0.00 0.00 0.00 72 1027.8
20190120033149 32 307 2.0 6.0 0.00 0.00 0.00 71 1027.7
20190120032648 32 338 2.0 7.0 0.00 0.00 0.00 70 1027.9
20190120032148 32 24 2.0 7.0 0.00 0.00 0.00 70 1027.9
20190120031648 32 357 1.0 6.0 0.00 0.00 0.00 70 1027.9
20190120031149 33 345 3.0 9.0 0.00 0.00 0.00 70 1028.0
20190120030648 33 3 4.0 9.0 0.00 0.00 0.00 70 1028.1
20190120030148 33 350 4.0 10.0 0.00 0.00 0.00 70 1028.1
20190120025646 33 44 4.0 10.0 0.00 0.00 0.00 69 1028.2
20190120025146 33 25 3.0 9.0 0.00 0.00 0.00 70 1028.3
20190120024647 33 21 3.0 9.0 0.00 0.00 0.00 69 1028.2
20190120024148 33 56 3.0 7.0 0.00 0.00 0.00 69 1028.1
20190120023648 34 351 2.0 7.0 0.00 0.00 0.00 69 1028.1
20190120023147 34 42 3.0 7.0 0.00 0.00 0.00 68 1028.1
20190120022647 34 343 4.0 9.0 0.00 0.00 0.00 67 1027.9
20190120022147 34 350 3.0 10.0 0.00 0.00 0.00 68 1027.9
20190120021646 34 351 4.0 10.0 0.00 0.00 0.00 67 1027.8
20190120021146 34 49 2.0 6.0 0.00 0.00 0.00 68 1027.7
20190120020645 34 331 2.0 6.0 0.00 0.00 0.00 67 1027.6
20190120020146 35 354 3.0 5.0 0.00 0.00 0.00 67 1027.6
20190120015646 35 336 3.0 6.0 0.00 0.00 0.00 67 1027.5
20190120015146 35 329 4.0 10.0 0.00 0.00 0.00 66 1027.3
20190120014645 35 326 4.0 10.0 0.00 0.00 0.00 65 1027.4
20190120014146 35 334 4.0 11.0 0.00 0.00 0.00 65 1027.3
20190120013645 35 343 5.0 12.0 0.00 0.00 0.00 64 1027.3
20190120013146 35 340 5.0 13.0 0.00 0.00 0.00 64 1027.2
20190120012644 35 10 4.0 13.0 0.00 0.00 0.00 64 1027.1
20190120012145 35 309 3.0 13.0 0.00 0.00 0.00 64 1027.2
20190120011645 35 45 4.0 13.0 0.00 0.00 0.00 64 1027.1
20190120011144 35 0 3.0 7.0 0.00 0.00 0.00 64 1027.0
20190120010646 35 341 5.0 7.0 0.00 0.00 0.00 63 1026.8
20190120010145 36 1 2.0 11.0 0.00 0.00 0.00 63 1026.9
20190120005644 36 323 3.0 12.0 0.00 0.00 0.00 63 1026.9
20190120005144 36 350 5.0 12.0 0.00 0.00 0.00 62 1026.8
20190120004643 36 337 2.0 10.0 0.00 0.00 0.00 63 1026.8
20190120004144 36 298 5.0 10.0 0.00 0.00 0.00 63 1026.7
20190120003644 36 347 4.0 13.0 0.00 0.00 0.00 64 1026.6
20190120003144 36 252 2.0 13.0 0.00 0.00 0.00 64 1026.6
20190120002644 36 344 4.0 11.0 0.00 0.00 0.00 64 1026.6
20190120002145 36 351 2.0 11.0 0.00 0.00 0.00 64 1026.5
20190120001643 36 314 2.0 11.0 0.00 0.00 0.00 64 1026.5
20190120001144 36 358 2.0 11.0 0.00 0.00 0.00 63 1026.3
20190120000643 36 32 3.0 10.0 0.00 0.00 0.00 63 1026.2
20190120000143 37 31 3.0 10.0 0.00 0.00 0.00 62 1026.0